Location: River House Observatory
(37.8577°N, 76.3548°W)
Time: 09:30:55
(UTC-04:00)

NOSS 3-1 (C) - Visible Passes

Search period start: 29 April 2017 00:00
Search period end: 09 May 2017 00:00
Orbit: 829 x 1380 km, 63.4° (Epoch: 26 April)

Date Brightness Start Highest point End Pass type
(mag) Time Alt. Az. Time Alt. Az. Time Alt. Az.
29 Apr 6.3 05:26:01 10° NNW 05:32:10 26° NE 05:38:48 10° E visible
29 Apr 3.9 21:08:18 10° S 21:13:16 32° ESE 21:18:38 10° NE visible
29 Apr 4.6 22:58:30 10° WSW 23:03:54 39° NW 23:09:54 10° NNE visible
30 Apr 6.4 00:55:46 10° NNW 00:56:57 10° NNW 00:58:08 10° NNW visible
30 Apr 6.4 04:41:13 10° N 04:46:15 19° NE 04:51:36 10° ENE visible
30 Apr 4.6 20:24:44 10° SSE 20:28:25 18° ESE 20:32:17 10° ENE visible
30 Apr 3.7 22:12:45 10° SW 22:18:25 63° NW 22:24:46 10° NNE visible
01 May 6.2 00:07:31 10° WNW 00:10:48 14° NNW 00:14:16 10° N visible
01 May 6.6 03:56:42 10° N 04:00:10 14° NNE 04:03:47 10° ENE visible
01 May 3.2 21:27:29 10° SSW 21:33:08 78° ESE 21:39:28 10° NE visible
01 May 5.8 23:20:25 10° W 23:24:50 21° NW 23:29:37 10° N visible
02 May 6.0 05:00:47 10° NNW 05:07:24 32° NE 05:14:35 10° ESE visible
02 May 3.6 20:42:44 10° S 20:48:04 44° ESE 20:53:55 10° NE visible
02 May 5.2 22:33:55 10° WSW 22:39:03 31° NW 22:44:44 10° NNE visible
03 May 6.4 04:15:55 10° N 04:21:36 23° NE 04:27:41 10° E visible
03 May 4.4 21:47:55 10° SW 21:53:29 48° NW 21:59:41 10° NNE visible
03 May 6.5 23:43:51 10° NW 23:46:13 12° NNW 23:48:42 10° N visible
04 May 6.6 03:31:13 10° N 03:35:36 16° NNE 03:40:14 10° ENE visible
04 May 4.9 05:20:39 10° NNW 05:28:09 57° NE 05:36:23 10° SE visible
04 May 3.5 21:02:24 10° SW 21:08:05 80° WNW 21:14:29 10° NNE visible
04 May 6.2 22:56:18 10° WNW 23:00:10 17° NNW 23:04:17 10° N visible
05 May 6.8 02:46:56 10° N 02:49:26 12° NNE 02:52:00 10° NE visible
05 May 5.6 04:35:35 10° NNW 04:42:36 39° NE 04:50:14 10° ESE visible
05 May 3.4 20:17:21 10° SSW 20:22:55 61° ESE 20:29:04 10° NE visible
05 May 5.7 22:09:30 10° W 22:14:16 25° NW 22:19:31 10° NNE visible
06 May 6.1 03:50:39 10° NNW 03:56:52 27° NE 04:03:37 10° E visible
06 May 5.0 21:23:14 10° WSW 21:28:35 37° NW 21:34:33 10° NNE visible
06 May 6.8 23:21:00 10° NNW 23:21:42 10° NNW 23:22:25 10° NNW visible
07 May 6.5 03:05:51 10° N 03:10:59 19° NE 03:16:28 10° E visible
07 May 4.5 04:55:33 10° NNW 05:03:13 70° NE 05:11:38 10° SE visible
07 May 4.1 20:37:27 10° SW 20:43:07 60° NW 20:49:26 10° NNE visible
07 May 6.5 22:32:23 10° WNW 22:35:32 14° NNW 22:38:52 10° N visible
08 May 6.7 02:21:17 10° N 02:24:55 14° NNE 02:28:43 10° ENE visible
08 May 5.1 04:10:25 10° NNW 04:17:44 48° NE 04:25:45 10° ESE visible
08 May 6.1 21:45:14 10° W 21:49:33 20° NW 21:54:14 10° N visible
